FW9926 Weather Reports


Display with metric or nautical units.
time (UTC)temp
F
wind
direction
speed
MPH
gust
MPH
rain 1hr
in
rain 24hr
in
rain mn
in
humidity
%
barometer
mb
20260902081606 57 0 0.0 4.0 0.00 0.00 0.00 26 1023.4
20260902074613 58 65 1.0 3.0 0.00 0.00 0.00 26 1023.3
20260902073101 58 0 1.0 5.0 0.00 0.00 0.00 26 1023.3
20260902071604 58 42 0.0 3.0 0.00 0.00 0.00 26 1023.4
20260902070107 58 0 0.0 2.0 0.00 0.00 0.00 25 1023.3
20260902064603 58 0 0.0 4.0 0.00 0.00 0.00 25 1023.1
20260902063105 58 21 0.0 3.0 0.00 0.00 0.00 25 1023.0
20260902061557 58 16 1.0 5.0 0.00 0.00 0.00 24 1023.0
20260902060100 59 15 1.0 4.0 0.00 0.00 0.00 24 1023.1
20260902054557 59 17 2.0 5.0 0.00 0.00 0.00 24 1023.1
20260902053102 59 0 0.0 0.0 0.00 0.00 0.00 24 1023.1
20260902051601 59 0 0.0 0.0 0.00 0.00 0.00 24 1023.2
20260902050109 59 0 0.0 0.0 0.00 0.00 0.00 24 1023.5
20260902044557 60 290 1.0 3.0 0.00 0.00 0.00 23 1023.1
20260902043106 60 290 2.0 4.0 0.00 0.00 0.00 23 1023.1
20260902041558 60 0 2.0 4.0 0.00 0.00 0.00 23 1022.8
20260902040100 60 284 1.0 3.0 0.00 0.00 0.00 23 1022.6
20260902034602 60 285 2.0 6.0 0.00 0.00 0.00 23 1022.4
20260902033059 61 287 2.0 6.0 0.00 0.00 0.00 23 1022.4
20260902031613 61 281 4.0 7.0 0.00 0.00 0.00 23 1022.4
20260902030107 61 0 0.0 0.0 0.00 0.00 0.00 23 1022.2
20260902024607 61 0 0.0 0.0 0.00 0.00 0.00 22 1022.2
20260902023105 62 0 0.0 0.0 0.00 0.00 0.00 22 1021.9
20260902021610 62 0 0.0 0.0 0.00 0.00 0.00 23 1022.3
20260902020117 63 0 0.0 4.0 0.00 0.00 0.00 25 1022.3
20260902014600 64 296 2.0 5.0 0.00 0.00 0.00 23 1022.6
20260902013100 65 0 0.0 4.0 0.00 0.00 0.00 25 1022.5
20260902011557 66 282 0.0 5.0 0.00 0.00 0.00 27 1022.5
20260902010054 67 0 1.0 10.0 0.00 0.00 0.00 28 1022.6
20260902004605 66 0 0.0 6.0 0.00 0.00 0.00 36 1022.8
20260902003108 66 153 1.0 6.0 0.00 0.00 0.00 37 1022.9
20260902001557 67 148 2.0 9.0 0.00 0.00 0.00 36 1022.9
20260902000057 68 157 2.0 7.0 0.00 0.00 0.00 39 1022.9
20260901234602 69 144 2.0 9.0 0.00 0.00 0.00 40 1023.0
20260901233104 70 301 3.0 8.0 0.00 0.00 0.00 41 1023.4
20260901231601 70 144 3.0 11.0 0.00 0.00 0.00 43 1023.2
20260901230108 70 0 2.0 11.0 0.00 0.00 0.00 43 1023.3
20260901224606 71 157 3.0 10.0 0.00 0.00 0.00 43 1023.6
20260901223109 71 136 2.0 13.0 0.00 0.00 0.00 44 1023.6
20260901221558 72 186 2.0 7.0 0.00 0.00 0.00 43 1023.8
20260901220125 72 133 5.0 12.0 0.00 0.00 0.00 43 1024.0
20260901214559 73 140 4.0 14.0 0.00 0.00 0.00 37 1024.2
20260901213115 72 144 4.0 9.0 0.00 0.00 0.00 41 1024.1
20260901211606 72 144 5.0 12.0 0.00 0.00 0.00 38 1024.1
20260901210104 75 192 0.0 9.0 0.00 0.00 0.00 35 1024.2
20260901204558 76 126 0.0 6.0 0.00 0.00 0.00 33 1024.1
20260901203100 75 279 1.0 8.0 0.00 0.00 0.00 32 1024.1
20260901201608 75 341 1.0 8.0 0.00 0.00 0.00 32 1024.2
20260901194605 75 19 3.0 8.0 0.00 0.00 0.00 31 1024.4
20260901193100 74 288 3.0 9.0 0.00 0.00 0.00 34 1024.4
20260901191616 74 28 2.0 8.0 0.00 0.00 0.00 33 1024.5
20260901190104 73 320 3.0 10.0 0.00 0.00 0.00 33 1024.5
20260901184613 74 284 1.0 8.0 0.00 0.00 0.00 32 1024.5
20260901183058 74 0 2.0 5.0 0.00 0.00 0.00 32 1024.4
20260901181607 73 346 2.0 6.0 0.00 0.00 0.00 33 1024.4
20260901180111 72 295 2.0 8.0 0.00 0.00 0.00 34 1024.4
20260901174601 71 107 2.0 11.0 0.00 0.00 0.00 34 1024.2
20260901173102 72 142 2.0 10.0 0.00 0.00 0.00 34 1024.2
20260901171604 72 14 2.0 8.0 0.00 0.00 0.00 32 1024.0
20260901170056 71 176 5.0 9.0 0.00 0.00 0.00 33 1023.9
20260901164608 71 268 3.0 8.0 0.00 0.00 0.00 33 1023.6
20260901163059 70 312 0.0 8.0 0.00 0.00 0.00 30 1023.6
20260901161616 70 355 2.0 8.0 0.00 0.00 0.00 30 1023.4
20260901160115 69 147 1.0 7.0 0.00 0.00 0.00 24 1023.1
20260901154603 68 169 1.0 7.0 0.00 0.00 0.00 24 1023.0
20260901153113 67 173 2.0 7.0 0.00 0.00 0.00 25 1022.9
20260901151605 65 141 2.0 7.0 0.00 0.00 0.00 25 1022.9
20260901150109 63 144 1.0 6.0 0.00 0.00 0.00 24 1022.8
20260901144608 62 0 0.0 7.0 0.00 0.00 0.00 24 1022.7
20260901143126 61 142 1.0 5.0 0.00 0.00 0.00 25 1022.8
20260901141606 60 152 1.0 4.0 0.00 0.00 0.00 24 1022.9
20260901140100 60 0 1.0 5.0 0.00 0.00 0.00 25 1022.6
20260901134608 60 149 1.0 4.0 0.00 0.00 0.00 24 1022.5
20260901133105 60 0 1.0 5.0 0.00 0.00 0.00 24 1022.2
20260901131601 60 132 1.0 5.0 0.00 0.00 0.00 24 1022.0
20260901130107 60 0 0.0 3.0 0.00 0.00 0.00 24 1021.9
20260901124605 60 0 0.0 6.0 0.00 0.00 0.00 24 1021.9
20260901123122 60 77 0.0 5.0 0.00 0.00 0.00 24 1021.9
20260901121603 60 0 0.0 3.0 0.00 0.00 0.00 24 1022.0
20260901120104 60 0 1.0 6.0 0.00 0.00 0.00 24 1022.0
20260901114606 60 0 0.0 0.0 0.00 0.00 0.00 24 1021.9
20260901113102 60 0 0.0 0.0 0.00 0.00 0.00 24 1022.0
20260901111610 60 0 0.0 3.0 0.00 0.00 0.00 24 1022.1
20260901110115 60 302 0.0 4.0 0.00 0.00 0.00 24 1022.1
20260901104604 60 134 1.0 5.0 0.00 0.00 0.00 24 1022.0
20260901103108 60 145 1.0 4.0 0.00 0.00 0.00 24 1022.2
20260901101602 60 0 0.0 0.0 0.00 0.00 0.00 25 1022.2
20260901100106 59 0 0.0 0.0 0.00 0.00 0.00 26 1022.3
20260901094603 59 0 0.0 1.0 0.00 0.00 0.00 27 1022.3
20260901093108 59 0 0.0 0.0 0.00 0.00 0.00 28 1022.2
20260901091559 59 0 0.0 0.0 0.00 0.00 0.00 27 1022.2
20260901084602 61 144 1.0 6.0 0.00 0.00 0.00 23 1022.2
20260901083059 61 0 0.0 4.0 0.00 0.00 0.00 23 1022.3